Flag for Falkland Islands Weather past 2 weeks in Stanley, Falkland Islands

Now
37 °F

Drizzle. Dense fog.


Feels Like: 28 °F
Forecast: 40 / 44 °F
Wind: 15 mph from West

Location: Mount Pleasant Airport

Current Time: Aug 29, 2015 at 7:31:48 AM

Latest Report: Aug 29, 2015 at 6:50 AM


Visibility: 0 mi

Pressure: 29.00 "Hg

Humidity: 100%

Dew point: 37 °F

Location of StanleyLocation

Historic Weather in Stanley — Graph

°F

Stanley temperature yesterday

Maximum temperature yesterday: 43 °F (at 1:50 PM)
Minimum temperature yesterday: 36 °F (at 2:50 AM)
Average temperature yesterday: 39 °F

Past Weeks' High & Low Weather Summary

 TemperatureHumidityPressure
High48 °F (Aug 16, 10:50 PM)100% (Aug 18, 1:50 AM)30.12 "Hg (Aug 18, 1:50 AM)
Low27 °F (Aug 19, 3:50 AM)45% (Aug 17, 10:50 AM)28.65 "Hg (Aug 16, 10:50 PM)
Average36 °F86%29.54 "Hg
* Reported Aug 14 5:50 AM — Aug 29 5:50 AM, Stanley, Weather by CustomWeather, © 2015

Note: Actual official high and low records may vary slightly from our data, if they occured in-between our weather recording intervals... More about our weather records

Advertising

Stanley weather history for previous 24 hours

 ConditionsComfort  
Time TempWeatherWind HumidityBarometerVisibility
5:50 AM
Sat, Aug 29
37 °FFog.13 mph100%29.00 "Hg1 mi
4:50 AM36 °FPassing clouds.10 mph100%29.00 "HgN/A
3:50 AM36 °FClear.9 mph100%28.97 "Hg10 mi
2:50 AM36 °FClear.3 mph100%29.00 "Hg10 mi
1:50 AM37 °FPassing clouds.6 mph93%29.00 "HgN/A
12:50 AM36 °FClear.7 mph93%29.00 "Hg10 mi
11:50 PM
Fri, Aug 28
39 °FClear.13 mph93%29.00 "Hg10 mi
10:50 PM39 °FPassing clouds.18 mph93%29.00 "HgN/A
9:50 PM39 °FPassing clouds.23 mph93%29.00 "HgN/A
8:50 PM39 °FPartly cloudy.25 mph100%29.03 "HgN/A
7:50 PM39 °FPassing clouds.22 mph100%29.03 "HgN/A
6:50 PM41 °FFog.18 mph93%29.06 "Hg2 mi
5:50 PM41 °FPartly sunny.35 mph93%29.03 "HgN/A
4:50 PM43 °FPartly sunny.38 mph87%29.03 "HgN/A
3:50 PM43 °FPartly sunny.36 mph87%29.03 "HgN/A
2:50 PM43 °FPartly sunny.24 mph87%29.12 "HgN/A
1:50 PM43 °FBroken clouds.33 mph87%29.12 "HgN/A
12:50 PM41 °FPartly sunny.18 mph87%29.21 "HgN/A
11:50 AM39 °FMostly cloudy.22 mph93%29.24 "HgN/A
10:50 AM39 °FDrizzle. Mostly cloudy.23 mph93%29.27 "HgN/A
9:50 AM37 °FFog.20 mph100%29.30 "Hg2 mi
8:50 AM37 °FDrizzle. Low clouds.29 mph93%29.33 "HgN/A
7:50 AM37 °FLow clouds.25 mph93%29.33 "HgN/A
Weather by CustomWeather, © 2015

See weather overviewHow to use our weather pages